RV1CJ-14 Weather Reports


time (UTC)temp
F
wind
direction
speed
knots
gust
knots
rain 1hr
in
rain 24hr
in
rain mn
in
humidity
%
barometer
mb
20260503232003 50 0 0.0 0.0 0.00 0.00 0.00 78 1004.6
20260503231003 50 0 0.0 0.0 0.00 0.00 0.00 78 1004.6
20260503230003 50 0 0.0 0.0 0.00 0.00 0.00 78 1004.5
20260503225003 50 0 0.0 0.0 0.00 0.00 0.00 78 1004.7
20260503224003 50 0 0.0 0.0 0.00 0.00 0.00 79 1004.8
20260503223003 50 0 0.0 0.0 0.00 0.00 0.00 79 1004.7
20260503222003 50 0 0.0 0.0 0.00 0.00 0.00 79 1004.6
20260503221003 50 0 0.0 0.0 0.00 0.00 0.00 79 1004.4
20260503220003 50 0 0.0 0.0 0.00 0.00 0.00 79 1004.5
20260503215003 50 0 0.0 0.0 0.00 0.00 0.00 79 1004.6
20260503214003 50 0 0.0 0.0 0.00 0.00 0.00 79 1004.7
20260503213003 50 0 0.0 0.0 0.00 0.00 0.00 79 1004.7
20260503212003 50 0 0.0 0.0 0.00 0.00 0.00 79 1004.6
20260503211003 50 0 0.0 0.0 0.00 0.00 0.00 79 1004.7
20260503210004 50 0 0.0 0.0 0.00 0.00 0.00 79 1004.8
20260503205003 50 0 0.0 0.0 0.00 0.00 0.00 79 1004.8
20260503204003 50 0 0.0 0.0 0.00 0.00 0.00 79 1005.0
20260503203003 50 0 0.0 0.0 0.00 0.00 0.00 79 1005.0
20260503202003 50 0 0.0 0.0 0.00 0.00 0.00 79 1005.0
20260503201003 50 0 0.0 0.0 0.00 0.00 0.00 79 1005.1
20260503200003 50 0 0.0 0.0 0.00 0.00 0.00 78 1005.0
20260503195003 50 0 0.0 0.0 0.00 0.00 0.00 78 1004.9
20260503194003 50 0 0.0 0.0 0.00 0.00 0.00 78 1005.1
20260503193003 50 0 0.0 0.0 0.00 0.00 0.00 77 1005.1
20260503192003 51 0 0.0 0.0 0.00 0.00 0.00 77 1005.1
20260503191003 51 0 0.0 0.0 0.00 0.00 0.00 76 1005.1
20260503190004 51 0 0.0 0.0 0.00 0.00 0.00 76 1005.1
20260503185003 52 0 0.0 0.0 0.00 0.00 0.00 76 1004.8
20260503184003 52 0 0.0 0.0 0.00 0.00 0.00 76 1004.8
20260503183003 52 0 0.0 0.0 0.00 0.00 0.00 75 1004.8
20260503182004 53 0 0.0 0.0 0.00 0.00 0.00 75 1005.0
20260503181004 53 0 0.0 0.0 0.00 0.00 0.00 74 1005.0
20260503180004 53 0 0.0 0.0 0.00 0.00 0.00 74 1004.9
20260503175003 54 0 0.0 0.0 0.00 0.00 0.00 74 1004.8
20260503174003 54 0 0.0 0.0 0.00 0.00 0.00 73 1004.7
20260503173003 54 0 0.0 0.0 0.00 0.00 0.00 73 1004.7
20260503172003 54 0 0.0 0.0 0.00 0.00 0.00 73 1004.6
20260503171003 54 0 0.0 0.0 0.00 0.00 0.00 72 1004.6
20260503151003 56 340 0.0 1.7 0.00 0.00 0.00 70 1004.7
20260503131003 52 340 0.9 1.7 0.00 0.00 0.00 78 1004.5
20260503081003 64 331 1.7 3.5 0.00 0.00 0.00 54 1002.5
20260503072003 66 164 0.9 6.1 0.00 0.00 0.00 52 1002.1
20260503071003 65 167 0.9 5.2 0.00 0.00 0.00 53 1002.2
20260503055003 60 0 0.0 0.0 0.00 0.00 0.00 61 1003.1
20260503054003 58 0 0.0 0.0 0.00 0.00 0.00 62 1003.1
20260503053003 58 0 0.0 0.0 0.00 0.00 0.00 63 1003.0
20260503052003 57 0 0.0 0.0 0.00 0.00 0.00 63 1003.1
20260503051003 57 0 0.0 0.0 0.00 0.00 0.00 65 1003.2
20260503050003 56 0 0.0 0.0 0.00 0.00 0.00 66 1003.3
20260503045003 55 0 0.0 0.0 0.00 0.00 0.00 67 1003.3
20260503044003 54 0 0.0 0.0 0.00 0.00 0.00 67 1003.3
20260503043003 54 0 0.0 0.0 0.00 0.00 0.00 68 1003.3
20260503042003 53 0 0.0 0.0 0.00 0.00 0.00 68 1003.3
20260503041003 52 0 0.0 0.0 0.00 0.00 0.00 69 1003.3
20260503040003 52 0 0.0 0.0 0.00 0.00 0.00 69 1003.5
20260503035003 52 0 0.0 0.0 0.00 0.00 0.00 70 1003.4
20260503034004 51 0 0.0 0.0 0.00 0.00 0.00 70 1003.5
20260503033003 51 0 0.0 0.0 0.00 0.00 0.00 70 1003.6
20260503032003 51 0 0.0 0.0 0.00 0.00 0.00 70 1003.5
20260503031003 51 0 0.0 0.0 0.00 0.00 0.00 70 1003.5
20260503030004 51 0 0.0 0.0 0.00 0.00 0.00 71 1003.6
20260503025003 51 0 0.0 0.0 0.00 0.00 0.00 71 1003.7
20260503024003 51 0 0.0 0.0 0.00 0.00 0.00 70 1003.8
20260503023004 51 0 0.0 0.0 0.00 0.00 0.00 70 1003.9
20260503022003 51 0 0.0 0.0 0.00 0.00 0.00 70 1004.0
20260503021003 51 0 0.0 0.0 0.00 0.00 0.00 70 1004.0
20260503020003 51 0 0.0 0.0 0.00 0.00 0.00 69 1004.0
20260503015003 51 0 0.0 0.0 0.00 0.00 0.00 69 1004.0
20260503014003 51 0 0.0 0.0 0.00 0.00 0.00 69 1004.1
20260503013003 52 0 0.0 0.0 0.00 0.00 0.00 68 1004.2
20260503012003 52 0 0.0 0.0 0.00 0.00 0.00 68 1004.1
20260503011004 52 0 0.0 0.0 0.00 0.00 0.00 67 1004.2
20260503010004 52 0 0.0 0.0 0.00 0.00 0.00 67 1004.2
20260503005003 53 0 0.0 0.0 0.00 0.00 0.00 67 1004.3
20260503004003 53 0 0.0 0.0 0.00 0.00 0.00 67 1004.4
20260503003003 53 0 0.0 0.0 0.00 0.00 0.00 67 1004.4
20260503002003 52 0 0.0 0.0 0.00 0.00 0.00 69 1004.6
20260503001003 52 338 0.0 0.9 0.00 0.00 0.00 70 1004.6
20260503000003 51 0 0.0 0.0 0.00 0.00 0.00 74 1004.6
20260502235003 51 0 0.0 0.0 0.00 0.00 0.00 75 1004.6
20260502234003 51 0 0.0 0.0 0.00 0.00 0.00 74 1004.7
20260502233003 51 0 0.0 0.0 0.00 0.00 0.00 73 1004.8